Location: Obersdorf
(47.4079°N, 10.2781°E)
Time: 03:55:03
(UTC+02:00)

Envisat - Pass Details

Date: 02 October 2021
Orbit: 764 x 766 km, 98.2° (Epoch: 17 October)

Event Time Altitude Azimuth Distance (km) Brightness Sun altitude
Rises 06:35:18 0° 14° (NNE) 3,243 6.5 -8.3°
Reaches altitude 10° 06:37:37 10° 15° (NNE) 2,312 5.7 -7.9°
Maximum altitude 06:42:44 86° 104° (ESE) 773 3.1 -7.0°
Drops below altitude 10° 06:47:48 10° 194° (SSW) 2,295 5.3 -6.2°
Sets 06:50:06 0° 194° (SSW) 3,216 6.1 -5.8°
